Find Kosmos-2522

NORAD ID: 42939 Int'l Des: 2017-055 Owner: VVKOV/IACG Country: RU Constellation: GLONASS operational
MEOCIRCULAR

实时位置

正在加载3D地球...

关于 Kosmos-2522

正在加载描述...

即将过境

Passes for default location (London). Set your location on the main map for personalized predictions.

高度历史

Loading altitude history...

两行轨道根数

1 42939U 17055A 26123.07413898 .00000043 00000-0 00000+0 0 9995
2 42939 64.0762 193.4192 0009539 236.7064 123.2797 2.13101871 67016
Epoch: May 3, 2026 • Age: 60 hours

当前状态

高度 19155.0 km
速度 3.95 km/s
星下点 59.69°N, 107.53°W
发射日期 Sep 22, 2017
运行时间 8.6 years
类型 other

技术详情

分类 Payload
质量 1450.00 kg
干质量 1200.00 kg
总质量 1450.00 kg
长度 4.00 m
直径 1.50 m
跨度 7.80 m
形状 Cyl + Ant + 2 Pan
制造商 RESH
平台类型 Uragan
阶段状态 In Orbit
所有者/国家 VVKOV/IACG/RU

Most Searched